Year,Month,Day,Hour,Minute,Value (Times are PST for temperature in C)
2007,07,10,00,00,14.20
2007,07,10,00,01,14.20
2007,07,10,00,02,14.20
2007,07,10,00,03,14.20
2007,07,10,00,04,14.20
2007,07,10,00,05,14.20
2007,07,10,00,06,14.20
2007,07,10,00,07,14.20
2007,07,10,00,08,14.20
2007,07,10,00,09,14.20
2007,07,10,00,10,14.20
2007,07,10,00,11,14.20
2007,07,10,00,12,14.20
2007,07,10,00,13,14.20
2007,07,10,00,14,14.20
2007,07,10,00,15,14.20
2007,07,10,00,16,14.20
2007,07,10,00,17,14.20
2007,07,10,00,18,14.20
2007,07,10,00,19,14.20
2007,07,10,00,20,14.20
2007,07,10,00,21,14.20
2007,07,10,00,22,14.20
2007,07,10,00,23,14.20
2007,07,10,00,24,14.20
2007,07,10,00,25,14.20
2007,07,10,00,26,14.20
2007,07,10,00,27,14.20
2007,07,10,00,28,14.20
2007,07,10,00,29,14.10
2007,07,10,00,30,14.10
2007,07,10,00,31,14.10
2007,07,10,00,32,14.00
2007,07,10,00,33,14.00
2007,07,10,00,34,13.90
2007,07,10,00,35,13.90
2007,07,10,00,36,13.80
2007,07,10,00,37,13.70
2007,07,10,00,38,13.70
2007,07,10,00,39,13.60
2007,07,10,00,40,13.60
2007,07,10,00,41,13.60
2007,07,10,00,42,13.50
2007,07,10,00,43,13.50
2007,07,10,00,44,13.50
2007,07,10,00,45,13.50
2007,07,10,00,46,13.50
2007,07,10,00,47,13.50
2007,07,10,00,48,13.40
2007,07,10,00,49,13.40
2007,07,10,00,50,13.40
2007,07,10,00,51,13.40
2007,07,10,00,52,13.40
2007,07,10,00,53,13.50
2007,07,10,00,54,13.50
2007,07,10,00,55,13.60
2007,07,10,00,56,13.60
2007,07,10,00,57,13.60
2007,07,10,00,58,13.50
2007,07,10,00,59,13.50
2007,07,10,01,00,13.50
2007,07,10,01,01,13.50
2007,07,10,01,02,13.40
2007,07,10,01,03,13.40
2007,07,10,01,04,13.30
2007,07,10,01,05,13.30
2007,07,10,01,06,13.30
2007,07,10,01,07,13.20
2007,07,10,01,08,13.20
2007,07,10,01,09,13.10
2007,07,10,01,10,13.10
2007,07,10,01,11,13.10
2007,07,10,01,12,13.10
2007,07,10,01,13,13.10
2007,07,10,01,14,13.00
2007,07,10,01,15,13.10
2007,07,10,01,16,13.10
2007,07,10,01,17,13.10
2007,07,10,01,18,13.10
2007,07,10,01,19,13.10
2007,07,10,01,20,13.10
2007,07,10,01,21,13.10
2007,07,10,01,22,13.10
2007,07,10,01,23,13.10
2007,07,10,01,24,13.10
2007,07,10,01,25,13.10
2007,07,10,01,26,13.10
2007,07,10,01,27,13.10
2007,07,10,01,28,13.00
2007,07,10,01,29,13.00
2007,07,10,01,30,13.00
2007,07,10,01,31,13.00
2007,07,10,01,32,13.00
2007,07,10,01,33,13.00
2007,07,10,01,34,13.00
2007,07,10,01,35,13.00
2007,07,10,01,36,13.00
2007,07,10,01,37,12.90
2007,07,10,01,38,12.90
2007,07,10,01,39,12.90
2007,07,10,01,40,12.90
2007,07,10,01,41,12.80
2007,07,10,01,42,12.80
2007,07,10,01,43,12.80
2007,07,10,01,44,12.80
2007,07,10,01,45,12.80
2007,07,10,01,46,12.80
2007,07,10,01,47,12.80
2007,07,10,01,48,12.90
2007,07,10,01,49,12.90
2007,07,10,01,50,12.90
2007,07,10,01,51,12.90
2007,07,10,01,52,12.90
2007,07,10,01,53,13.00
2007,07,10,01,54,13.00
2007,07,10,01,55,13.00
2007,07,10,01,56,13.00
2007,07,10,01,57,13.00
2007,07,10,01,58,13.00
2007,07,10,01,59,13.00
2007,07,10,02,00,13.00
2007,07,10,02,01,13.00
2007,07,10,02,02,13.00
2007,07,10,02,03,13.00
2007,07,10,02,04,12.90
2007,07,10,02,05,12.90
2007,07,10,02,06,12.80
2007,07,10,02,07,12.80
2007,07,10,02,08,12.80
2007,07,10,02,09,12.80
2007,07,10,02,10,12.70
2007,07,10,02,11,12.70
2007,07,10,02,12,12.70
2007,07,10,02,13,12.70
2007,07,10,02,14,12.70
2007,07,10,02,15,12.60
2007,07,10,02,16,12.60
2007,07,10,02,17,12.60
2007,07,10,02,18,12.60
2007,07,10,02,19,12.50
2007,07,10,02,20,12.50
2007,07,10,02,21,12.50
2007,07,10,02,22,12.50
2007,07,10,02,23,12.40
2007,07,10,02,24,12.40
2007,07,10,02,25,12.40
2007,07,10,02,26,12.40
2007,07,10,02,27,12.40
2007,07,10,02,28,12.30
2007,07,10,02,29,12.30
2007,07,10,02,30,12.30
2007,07,10,02,31,12.30
2007,07,10,02,32,12.30
2007,07,10,02,33,12.30
2007,07,10,02,34,12.30
2007,07,10,02,35,12.40
2007,07,10,02,36,12.40
2007,07,10,02,37,12.40
2007,07,10,02,38,12.40
2007,07,10,02,39,12.40
2007,07,10,02,40,12.30
2007,07,10,02,41,12.30
2007,07,10,02,42,12.30
2007,07,10,02,43,12.30
2007,07,10,02,44,12.20
2007,07,10,02,45,12.20
2007,07,10,02,46,12.10
2007,07,10,02,47,12.10
2007,07,10,02,48,12.00
2007,07,10,02,49,12.00
2007,07,10,02,50,12.00
2007,07,10,02,51,12.00
2007,07,10,02,52,11.90
2007,07,10,02,53,11.90
2007,07,10,02,54,11.90
2007,07,10,02,55,11.90
2007,07,10,02,56,11.90
2007,07,10,02,57,11.90
2007,07,10,02,58,11.90
2007,07,10,02,59,11.90
2007,07,10,03,00,11.90
2007,07,10,03,01,11.90
2007,07,10,03,02,11.90
2007,07,10,03,03,11.90
2007,07,10,03,04,11.90
2007,07,10,03,05,11.90
2007,07,10,03,06,11.90
2007,07,10,03,07,11.90
2007,07,10,03,08,11.90
2007,07,10,03,09,11.90
2007,07,10,03,10,12.00
2007,07,10,03,11,12.00
2007,07,10,03,12,12.00
2007,07,10,03,13,12.00
2007,07,10,03,14,12.00
2007,07,10,03,15,12.00
2007,07,10,03,16,12.10
2007,07,10,03,17,12.20
2007,07,10,03,18,12.20
2007,07,10,03,19,12.30
2007,07,10,03,20,12.30
2007,07,10,03,21,12.30
2007,07,10,03,22,12.30
2007,07,10,03,23,12.30
2007,07,10,03,24,12.30
2007,07,10,03,25,12.30
2007,07,10,03,26,12.20
2007,07,10,03,27,12.20
2007,07,10,03,28,12.20
2007,07,10,03,29,12.20
2007,07,10,03,30,12.20
2007,07,10,03,31,12.10
2007,07,10,03,32,12.10
2007,07,10,03,33,12.10
2007,07,10,03,34,12.10
2007,07,10,03,35,12.10
2007,07,10,03,36,12.00
2007,07,10,03,37,12.00
2007,07,10,03,38,12.00
2007,07,10,03,39,11.90
2007,07,10,03,40,11.90
2007,07,10,03,41,11.80
2007,07,10,03,42,11.80
2007,07,10,03,43,11.80
2007,07,10,03,44,11.80
2007,07,10,03,45,11.80
2007,07,10,03,46,11.80
2007,07,10,03,47,11.80
2007,07,10,03,48,11.80
2007,07,10,03,49,11.80
2007,07,10,03,50,11.80
2007,07,10,03,51,11.80
2007,07,10,03,52,11.80
2007,07,10,03,53,11.80
2007,07,10,03,54,11.80
2007,07,10,03,55,11.80
2007,07,10,03,56,11.80
2007,07,10,03,57,11.80
2007,07,10,03,58,11.80
2007,07,10,03,59,11.80
2007,07,10,04,00,11.80
2007,07,10,04,01,11.70
2007,07,10,04,02,11.70
2007,07,10,04,03,11.60
2007,07,10,04,04,11.60
2007,07,10,04,05,11.60
2007,07,10,04,06,11.60
2007,07,10,04,07,11.50
2007,07,10,04,08,11.40
2007,07,10,04,09,11.40
2007,07,10,04,10,11.40
2007,07,10,04,11,11.40
2007,07,10,04,12,11.40
2007,07,10,04,13,11.40
2007,07,10,04,14,11.40
2007,07,10,04,15,11.40
2007,07,10,04,16,11.40
2007,07,10,04,17,11.40
2007,07,10,04,18,11.40
2007,07,10,04,19,11.40
2007,07,10,04,20,11.40
2007,07,10,04,21,11.60
2007,07,10,04,22,11.60
2007,07,10,04,23,11.60
2007,07,10,04,24,11.60
2007,07,10,04,25,11.60
2007,07,10,04,26,11.60
2007,07,10,04,27,11.60
2007,07,10,04,28,11.60
2007,07,10,04,29,11.60
2007,07,10,04,30,11.50
2007,07,10,04,31,11.40
2007,07,10,04,32,11.40
2007,07,10,04,33,11.40
2007,07,10,04,34,11.40
2007,07,10,04,35,11.40
2007,07,10,04,36,11.40
2007,07,10,04,37,11.40
2007,07,10,04,38,11.40
2007,07,10,04,39,11.40
2007,07,10,04,40,11.30
2007,07,10,04,41,11.30
2007,07,10,04,42,11.30
2007,07,10,04,43,11.30
2007,07,10,04,44,11.30
2007,07,10,04,45,11.30
2007,07,10,04,46,11.30
2007,07,10,04,47,11.30
2007,07,10,04,48,11.30
2007,07,10,04,49,11.20
2007,07,10,04,50,11.20
2007,07,10,04,51,11.20
2007,07,10,04,52,11.20
2007,07,10,04,53,11.20
2007,07,10,04,54,11.20
2007,07,10,04,55,11.20
2007,07,10,04,56,11.20
2007,07,10,04,57,11.30
2007,07,10,04,58,11.30
2007,07,10,04,59,11.30
2007,07,10,05,00,11.30
2007,07,10,05,01,11.20
2007,07,10,05,02,11.30
2007,07,10,05,03,11.30
2007,07,10,05,04,11.30
2007,07,10,05,05,11.30
2007,07,10,05,06,11.30
2007,07,10,05,07,11.30
2007,07,10,05,08,11.30
2007,07,10,05,09,11.30
2007,07,10,05,10,11.20
2007,07,10,05,11,11.20
2007,07,10,05,12,11.20
2007,07,10,05,13,11.20
2007,07,10,05,14,11.20
2007,07,10,05,15,11.20
2007,07,10,05,16,11.20
2007,07,10,05,17,11.10
2007,07,10,05,18,11.10
2007,07,10,05,19,11.10
2007,07,10,05,20,11.10
2007,07,10,05,21,11.10
2007,07,10,05,22,11.10
2007,07,10,05,23,11.10
2007,07,10,05,24,11.10
2007,07,10,05,25,11.10
2007,07,10,05,26,11.10
2007,07,10,05,27,11.10
2007,07,10,05,28,11.10
2007,07,10,05,29,11.10
2007,07,10,05,30,11.10
2007,07,10,05,31,11.10
2007,07,10,05,32,11.10
2007,07,10,05,33,11.10
2007,07,10,05,34,11.10
2007,07,10,05,35,11.10
2007,07,10,05,36,11.10
2007,07,10,05,37,11.10
2007,07,10,05,38,11.10
2007,07,10,05,39,11.10
2007,07,10,05,40,11.10
2007,07,10,05,41,11.10
2007,07,10,05,42,11.10
2007,07,10,05,43,11.10
2007,07,10,05,44,11.10
2007,07,10,05,45,11.10
2007,07,10,05,46,11.10
2007,07,10,05,47,11.10
2007,07,10,05,48,11.10
2007,07,10,05,49,11.10
2007,07,10,05,50,11.10
2007,07,10,05,51,11.10
2007,07,10,05,52,11.20
2007,07,10,05,53,11.20
2007,07,10,05,54,11.20
2007,07,10,05,55,11.20
2007,07,10,05,56,11.20
2007,07,10,05,57,11.30
2007,07,10,05,58,11.30
2007,07,10,05,59,11.30
2007,07,10,06,00,11.30
2007,07,10,06,01,11.30
2007,07,10,06,02,11.30
2007,07,10,06,03,11.40
2007,07,10,06,04,11.40
2007,07,10,06,05,11.40
2007,07,10,06,06,11.50
2007,07,10,06,07,11.60
2007,07,10,06,08,11.60
2007,07,10,06,09,11.60
2007,07,10,06,10,11.70
2007,07,10,06,11,11.70
2007,07,10,06,12,11.80
2007,07,10,06,13,11.80
2007,07,10,06,14,11.90
2007,07,10,06,15,12.00
2007,07,10,06,16,12.00
2007,07,10,06,17,12.10
2007,07,10,06,18,12.20
2007,07,10,06,19,12.20
2007,07,10,06,20,12.20
2007,07,10,06,21,12.30
2007,07,10,06,22,12.30
2007,07,10,06,23,12.30
2007,07,10,06,24,12.30
2007,07,10,06,25,12.30
2007,07,10,06,26,12.30
2007,07,10,06,27,12.30
2007,07,10,06,28,12.30
2007,07,10,06,29,12.30
2007,07,10,06,30,12.30
2007,07,10,06,31,12.30
2007,07,10,06,32,12.30
2007,07,10,06,33,12.30
2007,07,10,06,34,12.40
2007,07,10,06,35,12.40
2007,07,10,06,36,12.50
2007,07,10,06,37,12.50
2007,07,10,06,38,12.50
2007,07,10,06,39,12.50
2007,07,10,06,40,12.50
2007,07,10,06,41,12.50
2007,07,10,06,42,12.60
2007,07,10,06,43,12.60
2007,07,10,06,44,12.70
2007,07,10,06,45,12.80
2007,07,10,06,46,12.90
2007,07,10,06,47,13.00
2007,07,10,06,48,13.00
2007,07,10,06,49,13.10
2007,07,10,06,50,13.20
2007,07,10,06,51,13.30
2007,07,10,06,52,13.30
2007,07,10,06,53,13.40
2007,07,10,06,54,13.50
2007,07,10,06,55,13.50
2007,07,10,06,56,13.60
2007,07,10,06,57,13.70
2007,07,10,06,58,13.70
2007,07,10,06,59,13.70
2007,07,10,07,00,13.80
2007,07,10,07,01,13.90
2007,07,10,07,02,14.00
2007,07,10,07,03,14.10
2007,07,10,07,04,14.20
2007,07,10,07,05,14.30
2007,07,10,07,06,14.40
2007,07,10,07,07,14.60
2007,07,10,07,08,14.70
2007,07,10,07,09,14.80
2007,07,10,07,10,14.90
2007,07,10,07,11,15.00
2007,07,10,07,12,15.10
2007,07,10,07,13,15.30
2007,07,10,07,14,15.30
2007,07,10,07,15,15.40
2007,07,10,07,16,15.50
2007,07,10,07,17,15.60
2007,07,10,07,18,15.70
2007,07,10,07,19,15.80
2007,07,10,07,20,15.90
2007,07,10,07,21,16.10
2007,07,10,07,22,16.20
2007,07,10,07,23,16.30
2007,07,10,07,24,16.40
2007,07,10,07,25,16.40
2007,07,10,07,26,16.40
2007,07,10,07,27,16.60
2007,07,10,07,28,16.70
2007,07,10,07,29,16.70
2007,07,10,07,30,16.80
2007,07,10,07,31,16.90
2007,07,10,07,32,17.00
2007,07,10,07,33,17.00
2007,07,10,07,34,17.10
2007,07,10,07,35,17.20
2007,07,10,07,36,17.30
2007,07,10,07,37,17.40
2007,07,10,07,38,17.50
2007,07,10,07,39,17.70
2007,07,10,07,40,17.90
2007,07,10,07,41,18.10
2007,07,10,07,42,18.20
2007,07,10,07,43,18.40
2007,07,10,07,44,18.60
2007,07,10,07,45,18.70
2007,07,10,07,46,18.90
2007,07,10,07,47,19.10
2007,07,10,07,48,19.20
2007,07,10,07,49,19.40
2007,07,10,07,50,19.60
2007,07,10,07,51,19.70
2007,07,10,07,52,19.80
2007,07,10,07,53,20.00
2007,07,10,07,54,20.10
2007,07,10,07,55,20.20
2007,07,10,07,56,20.30
2007,07,10,07,57,20.40
2007,07,10,07,58,20.50
2007,07,10,07,59,20.50
2007,07,10,08,00,20.60
2007,07,10,08,01,20.70
2007,07,10,08,02,20.70
2007,07,10,08,03,20.80
2007,07,10,08,04,20.90
2007,07,10,08,05,20.90
2007,07,10,08,06,21.00
2007,07,10,08,07,21.00
2007,07,10,08,08,21.10
2007,07,10,08,09,21.20
2007,07,10,08,10,21.30
2007,07,10,08,11,21.30
2007,07,10,08,12,21.40
2007,07,10,08,13,21.50
2007,07,10,08,14,21.60
2007,07,10,08,15,21.60
2007,07,10,08,16,21.70
2007,07,10,08,17,21.80
2007,07,10,08,18,21.90
2007,07,10,08,19,22.00
2007,07,10,08,20,22.10
2007,07,10,08,21,22.20
2007,07,10,08,22,22.30
2007,07,10,08,23,22.40
2007,07,10,08,24,22.50
2007,07,10,08,25,22.60
2007,07,10,08,26,22.70
2007,07,10,08,27,22.70
2007,07,10,08,28,22.80
2007,07,10,08,29,22.90
2007,07,10,08,30,22.90
2007,07,10,08,31,23.10
2007,07,10,08,32,23.10
2007,07,10,08,33,23.20
2007,07,10,08,34,23.30
2007,07,10,08,35,23.30
2007,07,10,08,36,23.30
2007,07,10,08,37,23.40
2007,07,10,08,38,23.40
2007,07,10,08,39,23.40
2007,07,10,08,40,23.40
2007,07,10,08,41,23.50
2007,07,10,08,42,23.60
2007,07,10,08,43,23.70
2007,07,10,08,44,23.70
2007,07,10,08,45,23.70
2007,07,10,08,46,23.70
2007,07,10,08,47,23.80
2007,07,10,08,48,23.90
2007,07,10,08,49,24.00
2007,07,10,08,50,24.10
2007,07,10,08,51,24.10
2007,07,10,08,52,24.20
2007,07,10,08,53,24.30
2007,07,10,08,54,24.40
2007,07,10,08,55,24.50
2007,07,10,08,56,24.50
2007,07,10,08,57,24.60
2007,07,10,08,58,24.60
2007,07,10,08,59,24.60
2007,07,10,09,00,24.70
2007,07,10,09,01,24.70
2007,07,10,09,02,24.80
2007,07,10,09,03,24.80
2007,07,10,09,04,24.80
2007,07,10,09,05,24.90
2007,07,10,09,06,24.90
2007,07,10,09,07,24.90
2007,07,10,09,08,24.90
2007,07,10,09,09,25.00
2007,07,10,09,10,25.10
2007,07,10,09,11,25.10
2007,07,10,09,12,25.20
2007,07,10,09,13,25.20
2007,07,10,09,14,25.30
2007,07,10,09,15,25.40
2007,07,10,09,16,25.50
2007,07,10,09,17,25.50
2007,07,10,09,18,25.60
2007,07,10,09,19,25.60
2007,07,10,09,20,25.40
2007,07,10,09,21,25.30
2007,07,10,09,22,25.10
2007,07,10,09,23,24.90
2007,07,10,09,24,24.90
2007,07,10,09,25,24.90
2007,07,10,09,26,24.90
2007,07,10,09,27,24.90
2007,07,10,09,28,25.00
2007,07,10,09,29,25.00
2007,07,10,09,30,25.20
2007,07,10,09,31,25.20
2007,07,10,09,32,25.30
2007,07,10,09,33,25.40
2007,07,10,09,34,25.40
2007,07,10,09,35,25.40
2007,07,10,09,36,25.60
2007,07,10,09,37,25.60
2007,07,10,09,38,25.70
2007,07,10,09,39,25.70
2007,07,10,09,40,25.80
2007,07,10,09,41,25.90
2007,07,10,09,42,25.90
2007,07,10,09,43,25.90
2007,07,10,09,44,25.90
2007,07,10,09,45,25.90
2007,07,10,09,46,25.80
2007,07,10,09,47,25.90
2007,07,10,09,48,26.00
2007,07,10,09,49,26.00
2007,07,10,09,50,26.10
2007,07,10,09,51,26.10
2007,07,10,09,52,26.20
2007,07,10,09,53,26.30
2007,07,10,09,54,26.30
2007,07,10,09,55,26.30
2007,07,10,09,56,26.20
2007,07,10,09,57,26.20
2007,07,10,09,58,26.10
2007,07,10,09,59,26.20
2007,07,10,10,00,26.20
2007,07,10,10,01,26.30
2007,07,10,10,02,26.30
2007,07,10,10,03,26.40
2007,07,10,10,04,26.40
2007,07,10,10,05,26.60
2007,07,10,10,06,26.60
2007,07,10,10,07,26.60
2007,07,10,10,08,26.70
2007,07,10,10,09,26.70
2007,07,10,10,10,26.80
2007,07,10,10,11,26.80
2007,07,10,10,12,26.80
2007,07,10,10,13,26.80
2007,07,10,10,14,26.80
2007,07,10,10,15,26.80
2007,07,10,10,16,26.80
2007,07,10,10,17,26.80
2007,07,10,10,18,26.80
2007,07,10,10,19,27.00
2007,07,10,10,20,27.20
2007,07,10,10,21,27.20
2007,07,10,10,22,27.30
2007,07,10,10,23,27.40
2007,07,10,10,24,27.50
2007,07,10,10,25,27.60
2007,07,10,10,26,27.70
2007,07,10,10,27,27.80
2007,07,10,10,28,27.80
2007,07,10,10,29,27.90
2007,07,10,10,30,27.90
2007,07,10,10,31,28.00
2007,07,10,10,32,28.00
2007,07,10,10,33,28.10
2007,07,10,10,34,28.10
2007,07,10,10,35,28.00
2007,07,10,10,36,27.90
2007,07,10,10,37,27.90
2007,07,10,10,38,27.80
2007,07,10,10,39,27.80
2007,07,10,10,40,27.70
2007,07,10,10,41,27.50
2007,07,10,10,42,27.50
2007,07,10,10,43,27.60
2007,07,10,10,44,27.60
2007,07,10,10,45,27.70
2007,07,10,10,46,27.90
2007,07,10,10,47,28.00
2007,07,10,10,48,28.10
2007,07,10,10,49,28.10
2007,07,10,10,50,28.20
2007,07,10,10,51,28.20
2007,07,10,10,52,28.30
2007,07,10,10,53,28.30
2007,07,10,10,54,28.30
2007,07,10,10,55,28.30
2007,07,10,10,56,28.20
2007,07,10,10,57,27.90
2007,07,10,10,58,27.80
2007,07,10,10,59,27.80
2007,07,10,11,00,27.70
2007,07,10,11,01,27.60
2007,07,10,11,02,27.60
2007,07,10,11,03,27.60
2007,07,10,11,04,27.60
2007,07,10,11,05,27.70
2007,07,10,11,06,27.70
2007,07,10,11,07,27.70
2007,07,10,11,08,27.80
2007,07,10,11,09,27.90
2007,07,10,11,10,27.90
2007,07,10,11,11,27.90
2007,07,10,11,12,28.00
2007,07,10,11,13,28.00
2007,07,10,11,14,28.00
2007,07,10,11,15,28.00
2007,07,10,11,16,28.00
2007,07,10,11,17,28.10
2007,07,10,11,18,28.10
2007,07,10,11,19,28.20
2007,07,10,11,20,28.30
2007,07,10,11,21,28.30
2007,07,10,11,22,28.30
2007,07,10,11,23,28.20
2007,07,10,11,24,28.20
2007,07,10,11,25,28.20
2007,07,10,11,26,28.20
2007,07,10,11,27,28.30
2007,07,10,11,28,28.30
2007,07,10,11,29,28.50
2007,07,10,11,30,28.60
2007,07,10,11,31,28.60
2007,07,10,11,32,28.60
2007,07,10,11,33,28.80
2007,07,10,11,34,28.90
2007,07,10,11,35,28.90
2007,07,10,11,36,28.90
2007,07,10,11,37,28.90
2007,07,10,11,38,28.90
2007,07,10,11,39,28.90
2007,07,10,11,40,28.90
2007,07,10,11,41,28.90
2007,07,10,11,42,28.90
2007,07,10,11,43,28.90
2007,07,10,11,44,28.90
2007,07,10,11,45,28.90
2007,07,10,11,46,28.80
2007,07,10,11,47,28.80
2007,07,10,11,48,28.80
2007,07,10,11,49,28.70
2007,07,10,11,50,28.80
2007,07,10,11,51,28.80
2007,07,10,11,52,28.80
2007,07,10,11,53,28.90
2007,07,10,11,54,28.90
2007,07,10,11,55,28.90
2007,07,10,11,56,28.70
2007,07,10,11,57,28.70
2007,07,10,11,58,28.70
2007,07,10,11,59,28.70
2007,07,10,12,00,28.60
2007,07,10,12,01,28.40
2007,07,10,12,02,28.40
2007,07,10,12,03,28.40
2007,07,10,12,04,28.60
2007,07,10,12,05,28.60
2007,07,10,12,06,28.70
2007,07,10,12,07,28.70
2007,07,10,12,08,28.70
2007,07,10,12,09,28.80
2007,07,10,12,10,28.80
2007,07,10,12,11,28.90
2007,07,10,12,12,29.00
2007,07,10,12,13,29.00
2007,07,10,12,14,29.10
2007,07,10,12,15,29.00
2007,07,10,12,16,28.90
2007,07,10,12,17,29.10
2007,07,10,12,18,29.00
2007,07,10,12,19,28.90
2007,07,10,12,20,28.90
2007,07,10,12,21,28.90
2007,07,10,12,22,28.90
2007,07,10,12,23,28.90
2007,07,10,12,24,28.90
2007,07,10,12,25,29.00
2007,07,10,12,26,29.20
2007,07,10,12,27,29.50
2007,07,10,12,28,29.70
2007,07,10,12,29,29.70
2007,07,10,12,30,29.80
2007,07,10,12,31,29.80
2007,07,10,12,32,29.80
2007,07,10,12,33,29.80
2007,07,10,12,34,29.90
2007,07,10,12,35,29.90
2007,07,10,12,36,29.90
2007,07,10,12,37,29.80
2007,07,10,12,38,29.70
2007,07,10,12,39,29.70
2007,07,10,12,40,29.70
2007,07,10,12,41,29.60
2007,07,10,12,42,29.60
2007,07,10,12,43,29.50
2007,07,10,12,44,29.60
2007,07,10,12,45,29.60
2007,07,10,12,46,29.70
2007,07,10,12,47,29.60
2007,07,10,12,48,29.70
2007,07,10,12,49,29.70
2007,07,10,12,50,29.60
2007,07,10,12,51,29.60
2007,07,10,12,52,29.80
2007,07,10,12,53,29.90
2007,07,10,12,54,30.00
2007,07,10,12,55,30.10
2007,07,10,12,56,30.20
2007,07,10,12,57,30.30
2007,07,10,12,58,30.10
2007,07,10,12,59,30.00
2007,07,10,13,00,29.90
2007,07,10,13,01,29.60
2007,07,10,13,02,29.40
2007,07,10,13,03,29.10
2007,07,10,13,04,29.00
2007,07,10,13,05,28.90
2007,07,10,13,06,28.90
2007,07,10,13,07,29.00
2007,07,10,13,08,29.10
2007,07,10,13,09,29.20
2007,07,10,13,10,29.30
2007,07,10,13,11,29.30
2007,07,10,13,12,29.40
2007,07,10,13,13,29.40
2007,07,10,13,14,29.20
2007,07,10,13,15,29.20
2007,07,10,13,16,29.20
2007,07,10,13,17,29.30
2007,07,10,13,18,29.40
2007,07,10,13,19,29.60
2007,07,10,13,20,29.70
2007,07,10,13,21,29.70
2007,07,10,13,22,29.70
2007,07,10,13,23,29.80
2007,07,10,13,24,30.00
2007,07,10,13,25,30.10
2007,07,10,13,26,30.20
2007,07,10,13,27,30.30
2007,07,10,13,28,30.20
2007,07,10,13,29,30.00
2007,07,10,13,30,29.90
2007,07,10,13,31,29.80
2007,07,10,13,32,29.70
2007,07,10,13,33,29.70
2007,07,10,13,34,29.50
2007,07,10,13,35,29.60
2007,07,10,13,36,29.80
2007,07,10,13,37,29.80
2007,07,10,13,38,29.80
2007,07,10,13,39,29.80
2007,07,10,13,40,29.60
2007,07,10,13,41,29.60
2007,07,10,13,42,29.60
2007,07,10,13,43,29.70
2007,07,10,13,44,29.70
2007,07,10,13,45,29.70
2007,07,10,13,46,29.70
2007,07,10,13,47,29.80
2007,07,10,13,48,29.90
2007,07,10,13,49,30.10
2007,07,10,13,50,30.30
2007,07,10,13,51,30.60
2007,07,10,13,52,30.80
2007,07,10,13,53,30.80
2007,07,10,13,54,30.90
2007,07,10,13,55,31.00
2007,07,10,13,56,31.10
2007,07,10,13,57,31.20
2007,07,10,13,58,31.30
2007,07,10,13,59,31.30
2007,07,10,14,00,31.30
2007,07,10,14,01,31.00
2007,07,10,14,02,30.60
2007,07,10,14,03,30.20
2007,07,10,14,04,29.90
2007,07,10,14,05,29.70
2007,07,10,14,06,29.40
2007,07,10,14,07,29.40
2007,07,10,14,08,29.30
2007,07,10,14,09,29.30
2007,07,10,14,10,29.40
2007,07,10,14,11,29.60
2007,07,10,14,12,29.80
2007,07,10,14,13,29.90
2007,07,10,14,14,29.90
2007,07,10,14,15,30.10
2007,07,10,14,16,30.30
2007,07,10,14,17,30.60
2007,07,10,14,18,30.70
2007,07,10,14,19,30.90
2007,07,10,14,20,31.20
2007,07,10,14,21,31.20
2007,07,10,14,22,31.40
2007,07,10,14,23,31.40
2007,07,10,14,24,31.20
2007,07,10,14,25,31.00
2007,07,10,14,26,30.60
2007,07,10,14,27,30.20
2007,07,10,14,28,30.00
2007,07,10,14,29,29.80
2007,07,10,14,30,29.70
2007,07,10,14,31,29.60
2007,07,10,14,32,29.70
2007,07,10,14,33,29.70
2007,07,10,14,34,29.70
2007,07,10,14,35,29.60
2007,07,10,14,36,29.70
2007,07,10,14,37,29.80
2007,07,10,14,38,29.90
2007,07,10,14,39,30.10
2007,07,10,14,40,30.20
2007,07,10,14,41,30.40
2007,07,10,14,42,30.60
2007,07,10,14,43,30.70
2007,07,10,14,44,30.80
2007,07,10,14,45,30.70
2007,07,10,14,46,30.60
2007,07,10,14,47,30.40
2007,07,10,14,48,30.30
2007,07,10,14,49,30.30
2007,07,10,14,50,30.10
2007,07,10,14,51,30.10
2007,07,10,14,52,30.10
2007,07,10,14,53,30.20
2007,07,10,14,54,30.20
2007,07,10,14,55,30.20
2007,07,10,14,56,30.20
2007,07,10,14,57,30.20
2007,07,10,14,58,30.30
2007,07,10,14,59,30.40
2007,07,10,15,00,30.60
2007,07,10,15,01,30.80
2007,07,10,15,02,31.00
2007,07,10,15,03,31.20
2007,07,10,15,04,31.40
2007,07,10,15,05,31.40
2007,07,10,15,06,31.40
2007,07,10,15,07,31.40
2007,07,10,15,08,31.40
2007,07,10,15,09,31.60
2007,07,10,15,10,31.80
2007,07,10,15,11,31.80
2007,07,10,15,12,31.80
2007,07,10,15,13,31.80
2007,07,10,15,14,31.60
2007,07,10,15,15,31.50
2007,07,10,15,16,31.40
2007,07,10,15,17,31.20
2007,07,10,15,18,31.20
2007,07,10,15,19,31.10
2007,07,10,15,20,31.10
2007,07,10,15,21,30.90
2007,07,10,15,22,30.80
2007,07,10,15,23,30.70
2007,07,10,15,24,30.70
2007,07,10,15,25,30.70
2007,07,10,15,26,30.70
2007,07,10,15,27,30.70
2007,07,10,15,28,30.70
2007,07,10,15,29,30.90
2007,07,10,15,30,31.00
2007,07,10,15,31,31.10
2007,07,10,15,32,31.30
2007,07,10,15,33,31.60
2007,07,10,15,34,31.90
2007,07,10,15,35,32.10
2007,07,10,15,36,32.20
2007,07,10,15,37,32.30
2007,07,10,15,38,32.10
2007,07,10,15,39,32.10
2007,07,10,15,40,32.10
2007,07,10,15,41,32.10
2007,07,10,15,42,31.90
2007,07,10,15,43,31.90
2007,07,10,15,44,31.80
2007,07,10,15,45,31.80
2007,07,10,15,46,31.80
2007,07,10,15,47,31.90
2007,07,10,15,48,31.90
2007,07,10,15,49,31.80
2007,07,10,15,50,31.80
2007,07,10,15,51,31.80
2007,07,10,15,52,31.90
2007,07,10,15,53,32.20
2007,07,10,15,54,32.30
2007,07,10,15,55,32.40
2007,07,10,15,56,32.50
2007,07,10,15,57,32.70
2007,07,10,15,58,32.80
2007,07,10,15,59,32.90
2007,07,10,16,00,32.90
2007,07,10,16,01,33.00
2007,07,10,16,02,33.10
2007,07,10,16,03,33.30
2007,07,10,16,04,33.40
2007,07,10,16,05,33.40
2007,07,10,16,06,33.50
2007,07,10,16,07,33.50
2007,07,10,16,08,33.30
2007,07,10,16,09,32.90
2007,07,10,16,10,32.50
2007,07,10,16,11,32.20
2007,07,10,16,12,31.80
2007,07,10,16,13,31.50
2007,07,10,16,14,31.40
2007,07,10,16,15,31.20
2007,07,10,16,16,31.10
2007,07,10,16,17,31.10
2007,07,10,16,18,31.20
2007,07,10,16,19,31.30
2007,07,10,16,20,31.40
2007,07,10,16,21,31.60
2007,07,10,16,22,31.70
2007,07,10,16,23,31.90
2007,07,10,16,24,32.10
2007,07,10,16,25,32.20
2007,07,10,16,26,32.30
2007,07,10,16,27,32.30
2007,07,10,16,28,32.40
2007,07,10,16,29,32.50
2007,07,10,16,30,32.70
2007,07,10,16,31,32.80
2007,07,10,16,32,32.90
2007,07,10,16,33,33.10
2007,07,10,16,34,33.10
2007,07,10,16,35,33.20
2007,07,10,16,36,33.40
2007,07,10,16,37,33.40
2007,07,10,16,38,33.60
2007,07,10,16,39,33.70
2007,07,10,16,40,33.70
2007,07,10,16,41,33.80
2007,07,10,16,42,33.90
2007,07,10,16,43,34.10
2007,07,10,16,44,34.30
2007,07,10,16,45,34.40
2007,07,10,16,46,34.60
2007,07,10,16,47,34.60
2007,07,10,16,48,34.70
2007,07,10,16,49,34.60
2007,07,10,16,50,34.30
2007,07,10,16,51,33.70
2007,07,10,16,52,33.50
2007,07,10,16,53,33.40
2007,07,10,16,54,33.00
2007,07,10,16,55,33.00
2007,07,10,16,56,33.00
2007,07,10,16,57,32.90
2007,07,10,16,58,32.90
2007,07,10,16,59,32.70
2007,07,10,17,00,32.40
2007,07,10,17,01,32.00
2007,07,10,17,02,31.70
2007,07,10,17,03,31.50
2007,07,10,17,04,31.40
2007,07,10,17,05,31.50
2007,07,10,17,06,31.60
2007,07,10,17,07,31.60
2007,07,10,17,08,31.60
2007,07,10,17,09,31.60
2007,07,10,17,10,31.60
2007,07,10,17,11,31.60
2007,07,10,17,12,31.60
2007,07,10,17,13,31.60
2007,07,10,17,14,31.60
2007,07,10,17,15,31.70
2007,07,10,17,16,31.90
2007,07,10,17,17,32.00
2007,07,10,17,18,32.20
2007,07,10,17,19,32.30